Location: Igri�s
(42.2144°N, 0.4320°W)
Time: 18:13:16
(UTC+00:00)

Cosmos 2123 Rocket - Pass Details

Date: 13 August 2020
Orbit: 962 x 991 km, 82.9° (Epoch: 17 September)

Event Time Altitude Azimuth Distance (km) Brightness Sun altitude
Rises 20:28:51 0° 353° (N) 3,670 7.7 -14.6°
Reaches altitude 10° 20:31:22 10° 354° (N) 2,722 6.9 -14.9°
Maximum altitude 20:37:37 83° 83° (E) 988 3.9 -15.9°
Enters shadow 20:43:02 14° 171° (S) 2,412 5.6 -16.7°
